TimePDT,TemperatureF,Dew PointF,Humidity,Sea Level PressureIn,VisibilityMPH,Wind Direction,Wind SpeedMPH,Gust SpeedMPH,PrecipitationIn,Events,Conditions,WindDirDegrees,DateUTC
12:03 AM,53.6,51.8,94,29.49,4.0,SSW,17.3,28.8,0.05,Rain,Rain,210,2013-09-29 07:03:00
12:30 AM,51.8,48.2,88,29.51,7.0,WSW,18.4,33.4,0.11,Rain,Light Rain,250,2013-09-29 07:30:00
12:53 AM,51.1,46.9,86,29.52,8.0,SW,21.9,29.9,0.11,Rain,Light Rain,230,2013-09-29 07:53:00
1:53 AM,48.9,44.1,83,29.51,7.0,SSW,20.7,32.2,0.09,Rain,Light Rain,200,2013-09-29 08:53:00
2:39 AM,48.2,44.6,87,29.52,7.0,South,23.0,34.5,0.03,Rain,Light Rain,190,2013-09-29 09:39:00
2:53 AM,46.9,44.1,90,29.56,7.0,SSW,27.6,35.7,0.05,Rain,Light Rain,210,2013-09-29 09:53:00
3:53 AM,46.0,42.1,86,29.56,7.0,SSW,27.6,42.6,N/A,,Overcast,210,2013-09-29 10:53:00
4:53 AM,46.0,42.1,86,29.59,7.0,SW,21.9,34.5,N/A,,Overcast,220,2013-09-29 11:53:00
5:53 AM,46.0,41.0,83,29.60,7.0,SSW,24.2,39.1,N/A,,Overcast,210,2013-09-29 12:53:00
6:12 AM,44.6,41.0,87,29.61,10.0,SW,23.0,31.1,N/A,,Scattered Clouds,220,2013-09-29 13:12:00
6:42 AM,44.6,39.2,81,29.60,10.0,SSW,23.0,31.1,N/A,,Partly Cloudy,210,2013-09-29 13:42:00
6:53 AM,45.0,39.9,82,29.60,10.0,SSW,21.9,29.9,N/A,,Partly Cloudy,210,2013-09-29 13:53:00
7:53 AM,46.0,39.9,79,29.61,10.0,SSW,20.7,31.1,N/A,,Scattered Clouds,200,2013-09-29 14:53:00
8:53 AM,48.0,39.9,74,29.63,10.0,SW,23.0,32.2,N/A,,Mostly Cloudy,220,2013-09-29 15:53:00
9:53 AM,50.0,39.9,68,29.65,10.0,SSW,21.9,29.9,N/A,,Mostly Cloudy,210,2013-09-29 16:53:00
10:53 AM,51.1,39.9,66,29.67,10.0,SSW,17.3,27.6,N/A,,Mostly Cloudy,210,2013-09-29 17:53:00
11:53 AM,51.1,41.0,68,29.67,10.0,SSW,17.3,23.0,N/A,,Overcast,200,2013-09-29 18:53:00
12:53 PM,52.0,41.0,66,29.66,10.0,SSW,21.9,26.5,N/A,,Overcast,200,2013-09-29 19:53:00
1:53 PM,53.1,42.1,66,29.65,10.0,SSW,18.4,23.0,0.00,,Overcast,200,2013-09-29 20:53:00
2:53 PM,52.0,45.0,77,29.65,10.0,SSW,18.4,27.6,0.00,Rain,Light Rain,200,2013-09-29 21:53:00
3:53 PM,54.0,42.1,64,29.65,10.0,SSW,15.0,25.3,0.00,,Overcast,200,2013-09-29 22:53:00
4:53 PM,53.1,41.0,64,29.64,10.0,SSW,23.0,33.4,0.00,Rain,Light Rain,200,2013-09-29 23:53:00
5:53 PM,52.0,41.0,66,29.63,10.0,South,13.8,24.2,0.00,,Overcast,190,2013-09-30 00:53:00
6:53 PM,50.0,43.0,77,29.62,10.0,SSE,11.5,18.4,0.00,Rain,Light Rain,160,2013-09-30 01:53:00
7:53 PM,48.9,43.0,80,29.60,10.0,South,12.7,-,0.00,Rain,Light Rain,170,2013-09-30 02:53:00
8:53 PM,48.9,42.1,77,29.56,10.0,SSE,12.7,-,0.00,,Overcast,150,2013-09-30 03:53:00
9:53 PM,48.0,43.0,83,29.52,10.0,SSE,19.6,29.9,0.01,,Overcast,150,2013-09-30 04:53:00
10:53 PM,48.0,43.0,83,29.47,10.0,SSE,13.8,26.5,0.00,,Overcast,150,2013-09-30 05:53:00
11:53 PM,48.0,44.1,86,29.43,9.0,SSE,18.4,24.2,0.03,Rain,Light Rain,160,2013-09-30 06:53:00